sat.trackr.live / text

‹ back to catalog

2025-180C

NORAD 65261 · 2025-180C

PAYLOAD ACTIVE UNKNOWN

§ Identity

Operator
Country
TBD
Launch date
2025-08-19
Launch site
JSC
Launch vehicle
Mass (kg)
RCS (m²)

External: N2YO · Heavens-Above · Gunter

§ Orbital elements

Epoch: 2026-09-20T22:05:47.723136Z

Period
94.98 min
Inclination
97.5356°
Eccentricity
0.0013338
Mean motion
15.16058776 rev/d
Perigee alt
508.6 km
Apogee alt
527.0 km
Semi-major
6,895.9 km
B*
1.5697e-4
RAAN
30.2304°
Arg perigee
356.4657°
Mean anomaly
3.6479°
Rev number
6,016

§ Raw data

2025-180C1 65261U 25180C   26263.92069124  .00002958  00000+0  15697-3 0  99922 65261  97.5356  30.2304 0013338 356.4657   3.6479 15.16058776 60161

JSON: /api/v1/satellites/65261 · /tle

For live sub-satellite position, see the globe view (requires WebGL).

§ Visibility from observer

Set your observer location to see the next 7 days of passes ≥ 10°. The values pass through the URL so the page stays shareable.

No JS? Fill the form by hand. The geolocation button needs JavaScript.